Time,TemperatureF,DewpointF,PressureIn,WindDirection,WindDirectionDegrees,WindSpeedMPH,WindSpeedGustMPH,Humidity,HourlyPrecipIn,Conditions,Clouds,dailyrainin,SoftwareType,DateUTC
2013-05-09 00:01:00,50.0,47.0,30.15,East,91,0.0,0.0,89,0.00,,,0.00,,2013-05-09 07:01:00,
2013-05-09 00:12:00,50.0,47.0,30.15,East,91,0.0,0.0,89,0.00,,,0.00,,2013-05-09 07:12:00,
2013-05-09 00:21:00,50.0,47.0,30.16,ENE,73,0.0,0.0,89,0.00,,,0.00,,2013-05-09 07:21:00,
2013-05-09 00:31:00,49.0,46.0,30.16,ENE,72,0.0,0.0,91,0.00,,,0.00,,2013-05-09 07:31:00,
2013-05-09 00:42:00,49.0,46.0,30.16,ENE,72,0.0,0.0,91,0.00,,,0.00,,2013-05-09 07:42:00,
2013-05-09 00:52:00,48.0,46.0,30.17,ENE,72,0.0,0.0,92,0.00,,,0.00,,2013-05-09 07:52:00,
2013-05-09 01:02:00,47.0,45.0,30.18,ENE,72,0.0,0.0,93,0.00,,,0.00,,2013-05-09 08:02:00,
2013-05-09 01:11:00,47.0,45.0,30.18,ENE,72,0.0,0.0,93,0.00,,,0.00,,2013-05-09 08:11:00,
2013-05-09 01:21:00,47.0,45.0,30.18,ENE,72,0.0,0.0,94,0.00,,,0.00,,2013-05-09 08:21:00,
2013-05-09 01:31:00,46.0,44.0,30.19,ENE,72,0.0,0.0,94,0.00,,,0.00,,2013-05-09 08:31:00,
2013-05-09 01:41:00,46.0,44.0,30.19,ENE,72,0.0,0.0,94,0.00,,,0.00,,2013-05-09 08:41:00,
2013-05-09 01:51:00,46.0,44.0,30.19,ENE,72,0.0,0.0,94,0.00,,,0.00,,2013-05-09 08:51:00,
2013-05-09 02:02:00,45.0,44.0,30.18,ENE,72,0.0,0.0,95,0.00,,,0.00,,2013-05-09 09:02:00,
2013-05-09 02:11:00,45.0,44.0,30.18,ENE,72,0.0,0.0,95,0.00,,,0.00,,2013-05-09 09:11:00,
2013-05-09 02:21:00,44.0,43.0,30.19,ENE,72,0.0,0.0,95,0.00,,,0.00,,2013-05-09 09:21:00,
2013-05-09 02:32:00,44.0,43.0,30.19,ENE,72,0.0,0.0,96,0.00,,,0.00,,2013-05-09 09:32:00,
2013-05-09 02:42:00,44.0,43.0,30.19,ENE,72,0.0,0.0,96,0.00,,,0.00,,2013-05-09 09:42:00,
2013-05-09 02:52:00,44.0,43.0,30.19,ENE,72,0.0,0.0,96,0.00,,,0.00,,2013-05-09 09:52:00,
2013-05-09 03:02:00,43.0,42.0,30.19,ENE,72,0.0,0.0,96,0.00,,,0.00,,2013-05-09 10:02:00,
2013-05-09 03:12:00,43.0,42.0,30.19,ENE,72,0.0,0.0,96,0.00,,,0.00,,2013-05-09 10:12:00,
2013-05-09 03:22:00,43.0,42.0,30.19,ENE,72,0.0,0.0,96,0.00,,,0.00,,2013-05-09 10:22:00,
2013-05-09 03:33:00,43.0,42.0,30.20,ENE,72,0.0,0.0,96,0.00,,,0.00,,2013-05-09 10:33:00,
2013-05-09 03:42:00,43.0,42.0,30.20,ENE,72,0.0,0.0,96,0.00,,,0.00,,2013-05-09 10:42:00,
2013-05-09 03:52:00,43.0,42.0,30.20,ENE,72,0.0,0.0,97,0.00,,,0.00,,2013-05-09 10:52:00,
2013-05-09 04:02:00,43.0,42.0,30.20,ENE,72,0.0,0.0,97,0.00,,,0.00,,2013-05-09 11:02:00,
2013-05-09 04:12:00,43.0,42.0,30.20,ENE,72,0.0,0.0,97,0.00,,,0.00,,2013-05-09 11:12:00,
2013-05-09 04:22:00,44.0,43.0,30.20,ENE,72,0.0,0.0,97,0.00,,,0.00,,2013-05-09 11:22:00,
2013-05-09 04:32:00,45.0,44.0,30.21,ENE,72,0.0,0.0,97,0.00,,,0.00,,2013-05-09 11:32:00,
2013-05-09 04:41:00,45.0,44.0,30.21,ENE,72,0.0,0.0,97,0.00,,,0.00,,2013-05-09 11:41:00,
2013-05-09 04:51:00,46.0,45.0,30.21,ENE,72,0.0,0.0,98,0.00,,,0.00,,2013-05-09 11:51:00,
2013-05-09 05:01:00,47.0,46.0,30.21,ENE,72,0.0,0.0,98,0.00,,,0.00,,2013-05-09 12:01:00,
2013-05-09 05:11:00,47.0,46.0,30.21,ENE,72,0.0,0.0,98,0.00,,,0.00,,2013-05-09 12:11:00,
2013-05-09 05:21:00,47.0,46.0,30.21,ENE,72,0.0,0.0,98,0.00,,,0.00,,2013-05-09 12:21:00,
2013-05-09 05:31:00,47.0,46.0,30.21,ENE,70,0.0,0.0,97,0.00,,,0.00,,2013-05-09 12:31:00,
2013-05-09 05:42:00,47.0,46.0,30.21,ENE,70,0.0,0.0,97,0.00,,,0.00,,2013-05-09 12:42:00,
2013-05-09 05:52:00,47.0,46.0,30.21,ENE,68,0.0,0.0,97,0.00,,,0.00,,2013-05-09 12:52:00,
2013-05-09 06:01:00,47.0,46.0,30.21,ENE,75,0.0,0.0,97,0.00,,,0.00,,2013-05-09 13:01:00,
2013-05-09 06:12:00,47.0,46.0,30.21,ENE,75,0.0,0.0,97,0.00,,,0.00,,2013-05-09 13:12:00,
2013-05-09 06:21:00,47.0,46.0,30.21,ENE,75,0.0,0.0,97,0.00,,,0.00,,2013-05-09 13:21:00,
2013-05-09 06:31:00,47.0,46.0,30.22,NE,51,0.0,0.0,97,0.00,,,0.00,,2013-05-09 13:31:00,
2013-05-09 06:42:00,47.0,46.0,30.22,NE,51,0.0,0.0,97,0.00,,,0.00,,2013-05-09 13:42:00,
2013-05-09 06:52:00,47.0,46.0,30.22,WNW,288,0.0,0.0,97,0.00,,,0.00,,2013-05-09 13:52:00,
2013-05-09 07:01:00,47.0,46.0,30.22,WNW,301,0.0,2.0,97,0.00,,,0.00,,2013-05-09 14:01:00,
2013-05-09 07:11:00,47.0,46.0,30.22,WNW,301,0.0,2.0,97,0.00,,,0.00,,2013-05-09 14:11:00,
2013-05-09 07:21:00,47.0,46.0,30.22,WNW,285,0.0,4.0,96,0.00,,,0.00,,2013-05-09 14:21:00,
2013-05-09 07:32:00,47.0,46.0,30.22,NNE,16,0.0,0.0,96,0.00,,,0.00,,2013-05-09 14:32:00,
2013-05-09 07:41:00,47.0,46.0,30.22,NNE,16,0.0,0.0,96,0.00,,,0.00,,2013-05-09 14:41:00,
2013-05-09 07:52:00,47.0,46.0,30.23,West,277,0.0,3.0,96,0.00,,,0.00,,2013-05-09 14:52:00,
2013-05-09 08:01:00,47.0,46.0,30.23,WNW,293,0.0,2.0,96,0.00,,,0.00,,2013-05-09 15:01:00,
2013-05-09 08:11:00,47.0,46.0,30.23,WNW,293,0.0,2.0,96,0.00,,,0.00,,2013-05-09 15:11:00,
2013-05-09 08:21:00,48.0,47.0,30.23,WNW,297,0.0,0.0,96,0.00,,,0.00,,2013-05-09 15:21:00,
2013-05-09 08:33:00,47.0,46.0,30.22,West,269,0.0,4.0,96,0.00,,,0.00,,2013-05-09 15:33:00,
2013-05-09 08:42:00,47.0,46.0,30.22,West,269,0.0,4.0,96,0.00,,,0.00,,2013-05-09 15:42:00,
2013-05-09 08:52:00,48.0,47.0,30.22,WNW,294,0.0,0.0,96,0.00,,,0.00,,2013-05-09 15:52:00,
2013-05-09 09:03:00,48.0,47.0,30.22,NW,305,0.0,3.0,95,0.00,,,0.00,,2013-05-09 16:03:00,
2013-05-09 09:12:00,48.0,47.0,30.22,NW,305,0.0,3.0,95,0.00,,,0.00,,2013-05-09 16:12:00,
2013-05-09 09:22:00,48.0,47.0,30.22,North,353,0.0,1.0,96,0.00,,,0.00,,2013-05-09 16:22:00,
2013-05-09 09:32:00,48.0,47.0,30.22,NW,316,0.0,6.0,96,0.00,,,0.00,,2013-05-09 16:32:00,
2013-05-09 09:42:00,48.0,47.0,30.22,NW,316,0.0,6.0,96,0.00,,,0.00,,2013-05-09 16:42:00,
2013-05-09 09:52:00,48.0,47.0,30.22,NW,308,0.0,3.0,95,0.00,,,0.00,,2013-05-09 16:52:00,
2013-05-09 10:02:00,49.0,47.0,30.22,WNW,290,0.0,4.0,94,0.00,,,0.00,,2013-05-09 17:02:00,
2013-05-09 10:12:00,49.0,47.0,30.22,WNW,290,0.0,4.0,94,0.00,,,0.00,,2013-05-09 17:12:00,
2013-05-09 10:21:00,50.0,48.0,30.22,West,280,0.0,0.0,93,0.00,,,0.00,,2013-05-09 17:21:00,
2013-05-09 10:32:00,50.0,48.0,30.22,South,184,0.0,5.0,93,0.00,,,0.00,,2013-05-09 17:32:00,
2013-05-09 10:41:00,50.0,48.0,30.22,South,184,0.0,5.0,93,0.00,,,0.00,,2013-05-09 17:41:00,
2013-05-09 10:55:00,51.0,49.0,30.22,WNW,296,0.0,2.0,92,0.00,,,0.00,,2013-05-09 17:55:00,
2013-05-09 11:01:00,51.0,49.0,30.22,WNW,297,0.0,5.0,92,0.00,,,0.00,,2013-05-09 18:01:00,
2013-05-09 11:12:00,51.0,49.0,30.22,WNW,297,0.0,5.0,92,0.00,,,0.00,,2013-05-09 18:12:00,
2013-05-09 11:21:00,52.0,49.0,30.22,West,280,0.0,5.0,91,0.00,,,0.00,,2013-05-09 18:21:00,
2013-05-09 11:31:00,52.0,49.0,30.22,NE,43,0.0,4.0,89,0.00,,,0.00,,2013-05-09 18:31:00,
2013-05-09 11:41:00,52.0,49.0,30.22,NE,43,0.0,4.0,89,0.00,,,0.00,,2013-05-09 18:41:00,
2013-05-09 11:52:00,54.0,50.0,30.22,West,271,0.0,2.0,87,0.00,,,0.00,,2013-05-09 18:52:00,
2013-05-09 12:01:00,55.0,50.0,30.21,NW,321,0.0,3.0,84,0.00,,,0.00,,2013-05-09 19:01:00,
2013-05-09 12:11:00,55.0,50.0,30.21,NW,321,0.0,3.0,84,0.00,,,0.00,,2013-05-09 19:11:00,
2013-05-09 12:21:00,56.0,50.0,30.21,SW,224,0.0,5.0,81,0.00,,,0.00,,2013-05-09 19:21:00,
2013-05-09 12:31:00,59.0,52.0,30.20,NNE,12,0.0,5.0,78,0.00,,,0.00,,2013-05-09 19:31:00,
2013-05-09 12:41:00,59.0,52.0,30.20,NNE,12,0.0,5.0,78,0.00,,,0.00,,2013-05-09 19:41:00,
2013-05-09 12:52:00,59.0,51.0,30.20,WNW,288,0.0,6.0,76,0.00,,,0.00,,2013-05-09 19:52:00,
2013-05-09 13:01:00,59.0,51.0,30.20,WNW,288,0.0,6.0,76,0.00,,,0.00,,2013-05-09 20:01:00,
2013-05-09 13:11:00,59.0,51.0,30.20,WNW,288,0.0,6.0,76,0.00,,,0.00,,2013-05-09 20:11:00,
2013-05-09 13:21:00,63.0,54.0,30.19,ENE,64,0.0,5.0,73,0.00,,,0.00,,2013-05-09 20:21:00,
2013-05-09 13:32:00,64.0,54.0,30.18,NW,309,2.0,7.0,69,0.00,,,0.00,,2013-05-09 20:32:00,
2013-05-09 13:42:00,65.0,53.0,30.18,WSW,248,1.0,7.0,66,0.00,,,0.00,,2013-05-09 20:42:00,
2013-05-09 13:52:00,65.0,53.0,30.18,WSW,248,1.0,7.0,66,0.00,,,0.00,,2013-05-09 20:52:00,
2013-05-09 14:01:00,66.0,53.0,30.18,NW,317,4.0,9.0,64,0.00,,,0.00,,2013-05-09 21:01:00,
2013-05-09 14:11:00,66.0,53.0,30.18,NW,317,4.0,9.0,64,0.00,,,0.00,,2013-05-09 21:11:00,
2013-05-09 14:22:00,68.0,54.0,30.18,WNW,288,0.0,5.0,62,0.00,,,0.00,,2013-05-09 21:22:00,
2013-05-09 14:32:00,68.0,54.0,30.17,NW,308,2.0,10.0,61,0.00,,,0.00,,2013-05-09 21:32:00,
2013-05-09 14:42:00,70.0,54.0,30.17,West,275,1.0,6.0,56,0.00,,,0.00,,2013-05-09 21:42:00,
2013-05-09 14:52:00,70.0,54.0,30.17,West,275,1.0,6.0,56,0.00,,,0.00,,2013-05-09 21:52:00,
2013-05-09 15:02:00,71.0,52.0,30.17,WNW,295,2.0,10.0,52,0.00,,,0.00,,2013-05-09 22:02:00,
2013-05-09 15:12:00,72.0,53.0,30.16,WNW,301,1.0,8.0,51,0.00,,,0.00,,2013-05-09 22:12:00,
2013-05-09 15:22:00,72.0,53.0,30.16,WNW,301,1.0,8.0,51,0.00,,,0.00,,2013-05-09 22:22:00,
2013-05-09 15:32:00,72.0,50.0,30.15,NNW,347,2.0,7.0,46,0.00,,,0.00,,2013-05-09 22:32:00,
2013-05-09 15:42:00,73.0,50.0,30.15,NNW,348,1.0,4.0,45,0.00,,,0.00,,2013-05-09 22:42:00,
2013-05-09 15:52:00,73.0,50.0,30.15,NNW,348,1.0,4.0,45,0.00,,,0.00,,2013-05-09 22:52:00,
2013-05-09 16:02:00,73.0,50.0,30.14,WNW,294,1.0,8.0,44,0.00,,,0.00,,2013-05-09 23:02:00,
2013-05-09 16:11:00,73.0,50.0,30.14,WNW,294,1.0,8.0,44,0.00,,,0.00,,2013-05-09 23:11:00,
2013-05-09 16:21:00,74.0,52.0,30.14,WNW,288,1.0,10.0,46,0.00,,,0.00,,2013-05-09 23:21:00,
2013-05-09 16:32:00,75.0,51.0,30.14,West,266,1.0,12.0,43,0.00,,,0.00,,2013-05-09 23:32:00,
2013-05-09 16:42:00,75.0,51.0,30.14,West,266,1.0,12.0,43,0.00,,,0.00,,2013-05-09 23:42:00,
2013-05-09 16:52:00,75.0,49.0,30.13,NE,35,2.0,7.0,40,0.00,,,0.00,,2013-05-09 23:52:00,
2013-05-09 17:01:00,75.0,52.0,30.13,WNW,299,3.0,8.0,44,0.00,,,0.00,,2013-05-10 00:01:00,
2013-05-09 17:11:00,75.0,52.0,30.13,WNW,299,3.0,8.0,44,0.00,,,0.00,,2013-05-10 00:11:00,
2013-05-09 17:21:00,75.0,52.0,30.13,NW,319,1.0,9.0,45,0.00,,,0.00,,2013-05-10 00:21:00,
2013-05-09 17:32:00,75.0,52.0,30.12,ENE,61,0.0,7.0,45,0.00,,,0.00,,2013-05-10 00:32:00,
2013-05-09 17:42:00,75.0,52.0,30.11,NNE,28,1.0,10.0,44,0.00,,,0.00,,2013-05-10 00:42:00,
2013-05-09 17:51:00,75.0,52.0,30.11,NNE,28,1.0,10.0,44,0.00,,,0.00,,2013-05-10 00:51:00,
2013-05-09 18:01:00,75.0,52.0,30.11,NNE,28,1.0,10.0,44,0.00,,,0.00,,2013-05-10 01:01:00,
2013-05-09 18:11:00,75.0,52.0,30.11,NNE,28,1.0,10.0,44,0.00,,,0.00,,2013-05-10 01:11:00,
2013-05-09 18:21:00,75.0,52.0,30.11,WNW,301,0.0,7.0,44,0.00,,,0.00,,2013-05-10 01:21:00,
2013-05-09 18:32:00,75.0,52.0,30.11,NW,311,3.0,9.0,44,0.00,,,0.00,,2013-05-10 01:32:00,
2013-05-09 18:42:00,75.0,52.0,30.11,NW,311,3.0,9.0,44,0.00,,,0.00,,2013-05-10 01:42:00,
2013-05-09 18:52:00,75.0,52.0,30.11,NW,311,3.0,9.0,44,0.00,,,0.00,,2013-05-10 01:52:00,
2013-05-09 19:01:00,75.0,53.0,30.11,NW,305,1.0,6.0,46,0.00,,,0.00,,2013-05-10 02:01:00,
2013-05-09 19:11:00,75.0,53.0,30.11,NW,305,1.0,6.0,46,0.00,,,0.00,,2013-05-10 02:11:00,
2013-05-09 19:21:00,75.0,52.0,30.10,WNW,293,1.0,8.0,45,0.00,,,0.00,,2013-05-10 02:21:00,
2013-05-09 19:31:00,74.0,50.0,30.10,ENE,75,0.0,5.0,43,0.00,,,0.00,,2013-05-10 02:31:00,
2013-05-09 19:42:00,74.0,51.0,30.11,NE,56,0.0,4.0,44,0.00,,,0.00,,2013-05-10 02:42:00,
2013-05-09 19:52:00,74.0,51.0,30.11,NE,56,0.0,4.0,44,0.00,,,0.00,,2013-05-10 02:52:00,
2013-05-09 20:01:00,73.0,51.0,30.11,ENE,63,0.0,0.0,46,0.00,,,0.00,,2013-05-10 03:01:00,
2013-05-09 20:11:00,73.0,51.0,30.11,ENE,63,0.0,0.0,46,0.00,,,0.00,,2013-05-10 03:11:00,
2013-05-09 20:21:00,71.0,51.0,30.11,NE,55,0.0,0.0,49,0.00,,,0.00,,2013-05-10 03:21:00,
2013-05-09 20:32:00,69.0,50.0,30.11,ENE,65,0.0,0.0,51,0.00,,,0.00,,2013-05-10 03:32:00,
2013-05-09 20:43:00,69.0,50.0,30.11,ENE,65,0.0,0.0,51,0.00,,,0.00,,2013-05-10 03:43:00,
2013-05-09 20:52:00,67.0,52.0,30.12,NW,325,0.0,1.0,58,0.00,,,0.00,,2013-05-10 03:52:00,
2013-05-09 21:02:00,65.0,53.0,30.12,West,281,0.0,0.0,64,0.00,,,0.00,,2013-05-10 04:02:00,
2013-05-09 21:12:00,65.0,53.0,30.12,West,281,0.0,0.0,64,0.00,,,0.00,,2013-05-10 04:12:00,
2013-05-09 21:22:00,64.0,53.0,30.13,WNW,290,0.0,0.0,68,0.00,,,0.00,,2013-05-10 04:22:00,
2013-05-09 21:33:00,63.0,53.0,30.13,NW,312,0.0,2.0,70,0.00,,,0.00,,2013-05-10 04:33:00,
2013-05-09 21:42:00,62.0,52.0,30.13,WNW,286,1.0,4.0,71,0.00,,,0.00,,2013-05-10 04:42:00,
2013-05-09 21:52:00,62.0,52.0,30.13,WNW,286,1.0,4.0,71,0.00,,,0.00,,2013-05-10 04:52:00,
2013-05-09 22:02:00,62.0,53.0,30.14,NW,314,0.0,4.0,72,0.00,,,0.00,,2013-05-10 05:02:00,
2013-05-09 22:12:00,62.0,53.0,30.14,NW,314,0.0,4.0,72,0.00,,,0.00,,2013-05-10 05:12:00,
2013-05-09 22:21:00,61.0,52.0,30.14,WSW,248,0.0,3.0,73,0.00,,,0.00,,2013-05-10 05:21:00,
2013-05-09 22:32:00,60.0,52.0,30.14,ENE,69,0.0,1.0,75,0.00,,,0.00,,2013-05-10 05:32:00,
2013-05-09 22:42:00,59.0,51.0,30.14,NE,42,0.0,0.0,76,0.00,,,0.00,,2013-05-10 05:42:00,
2013-05-09 22:52:00,59.0,51.0,30.14,NE,42,0.0,0.0,76,0.00,,,0.00,,2013-05-10 05:52:00,
2013-05-09 23:01:00,59.0,52.0,30.14,East,82,0.0,2.0,77,0.00,,,0.00,,2013-05-10 06:01:00,
2013-05-09 23:12:00,59.0,52.0,30.14,East,82,0.0,2.0,77,0.00,,,0.00,,2013-05-10 06:12:00,
2013-05-09 23:21:00,58.0,51.0,30.14,WNW,300,0.0,2.0,78,0.00,,,0.00,,2013-05-10 06:21:00,
2013-05-09 23:32:00,58.0,51.0,30.14,West,259,0.0,4.0,78,0.00,,,0.00,,2013-05-10 06:32:00,
2013-05-09 23:41:00,58.0,51.0,30.14,West,259,0.0,4.0,78,0.00,,,0.00,,2013-05-10 06:41:00,
2013-05-09 23:51:00,57.0,51.0,30.15,ENE,65,0.0,4.0,79,0.00,,,0.00,,2013-05-10 06:51:00,